Lexington Weather

Lexington, Massachusetts, USA

59°F
6/23/2021 12:54am 
  • Lexington Conditions: Overcast
  • Temperature: 58.8°F / 14.9°CColder 1.5°F than last hour.
  • Dew Point: 57.4°FDecreased 1.4°Fsince last hour.
  • Relative Humidity: 95
  • Wind: Calm, 10-min avg: Calm, gust: 2 mph
  • Barometer: 29.81 inRising 0.03  inHg/hr Rising Slowly
  • Visibility: 10 miles
  • Rain Today: 0.00 in
  •   

Regional Weather Roundup
for Boston / Norton, MA

        
000
ASUS41 KBOX 190504
RWRBOX

REGIONAL WEATHER ROUNDUP
NATIONAL WEATHER SERVICE BOSTON/NORTON MA
100 AM EDT SAT JUN 19 2021

NOTE:  "FAIR" INDICATES FEW OR NO CLOUDS BELOW 12,000 FEET WITH NO 
SIGNIFICANT WEATHER AND/OR OBSTRUCTIONS TO VISIBILITY.

MAZALL-190600-
EASTERN MASSACHUSETTS
  
CITY           SKY/WX    TMP DP  RH WIND       PRES   REMARKS
BOSTON         LGT RAIN  72  53  51 SW14      29.82F                  
BEVERLY        CLOUDY    71  55  56 SW9       29.80F                  
LAWRENCE       LGT RAIN  69  55  60 SW8       29.82F                  
BEDFORD        CLOUDY    66  57  72 S5        29.80F                  
BLUE HILL        N/A     66  53  63 SW13      29.83F                  
NORWOOD        CLOUDY    68  56  65 S6        29.83F                  
MARSHFIELD     CLOUDY    68  54  60 SW8G17    29.82F                  
PLYMOUTH       CLOUDY    67  55  65 SW12      29.85F                  
TAUNTON        CLOUDY    68  56  65 SW7       29.84F                  
NEW BEDFORD    CLOUDY    66  57  72 SW9       29.86F                  
$$

MAZALL-190600-
CAPE COD AND THE ISLANDS
  
CITY           SKY/WX    TMP DP  RH WIND       PRES   REMARKS
FALMOUTH       CLEAR     66  55  68 SW12G20   29.87F                  
HYANNIS        CLOUDY    68  57  68 SW13      29.87F                  
CHATHAM        CLOUDY    66  58  75 SW13G20   29.89F                  
PROVINCETOWN   CLOUDY    65  59  81 SW16G23   29.86F                  
NANTUCKET      CLOUDY    67  60  78 SW14      29.91F                  
MARTHAS VNYRD  CLOUDY    66  59  78 SW10      29.89F                  
$$
 
MAZALL-190600-
CENTRAL AND WESTERN MASSACHUSETTS
  
CITY           SKY/WX    TMP DP  RH WIND       PRES   REMARKS
WORCESTER      CLOUDY    67  54  63 SW14      29.84F                  
FITCHBURG      CLOUDY    70  55  59 S3        29.82F                  
ORANGE         CLOUDY    69  55  60 S7        29.82F                  
SPRINGFIELD    CLOUDY    69  56  62 S7        29.80F                  
WESTFIELD      MOCLDY    69  57  65 S6        29.81F                  
NORTH ADAMS    CLOUDY    75  52  44 MISG      29.79S                  
PITTSFIELD     CLOUDY    71  52  50 SW9G18    29.80F                  
$$
 
RIZALL-190600-
RHODE ISLAND
  
CITY           SKY/WX    TMP DP  RH WIND       PRES   REMARKS
PROVIDENCE     CLOUDY    69  56  62 SW9       29.85F                  
NEWPORT        CLOUDY    64  57  78 VRB6      29.87F                  
BLOCK ISLAND   CLOUDY    63  57  81 SW17      29.88F                  
SMITHFIELD     CLOUDY    66  58  75 SW5       29.85F                  
WESTERLY       CLOUDY    65  56  72 SW6       29.87F                  
$$
 
CTZALL-190600-
CONNECTICUT
  
CITY           SKY/WX    TMP DP  RH WIND       PRES   REMARKS
BRADLEY INTL   CLOUDY    70  56  61 S9        29.82F                  
HARTFORD       CLOUDY    71  57  61 S10       29.82F                  
BRIDGEPORT     MOCLDY    70  61  73 SW15      29.85S                  
DANBURY        MOCLDY    73  55  53 S8        29.85F                  
GROTON         CLOUDY    67  58  72 SW12      29.85F                  
NEW HAVEN      PTCLDY    70  62  76 VRB7      29.86S                  
CHESTER        FAIR      68  61  77 VRB7G15   29.87S                  
MERIDEN        CLOUDY    69  57  65 S8        29.85F                  
WILLIMANTIC    CLOUDY    69  56  62 S3        29.85F                  
OXFORD         CLOUDY    67  60  78 S5        29.87F                  
$$

MEZ002-015-021-024-NHZ003-005-008-011-012-014-VTZ005-008-190600-
NORTHERN NEW ENGLAND
  
CITY           SKY/WX    TMP DP  RH WIND       PRES   REMARKS
PORTLAND ME    MOCLDY    67  55  65 S5        29.77F                  
BANGOR ME      CLOUDY    62  55  77 S7        29.76F                  
CONCORD NH     CLOUDY    68  55  63 S7        29.78F                  
MANCHESTER NH  CLOUDY    68  57  68 S9        29.78F                  
NASHUA NH      CLOUDY    67  62  84 SE3       29.81F                  
PORTSMOUTH NH  CLOUDY    71  49  44 SW7       29.79F                  
JAFFREY NH     CLOUDY    67  55  65 S6        29.82F                  
KEENE NH       CLOUDY    69  55  60 S9        29.79F                  
BURLINGTON VT  CLOUDY    71  60  68 S15G22    29.68F                  
MT. WASHINGTON LGT RAIN  46  46 100 SW45G56     N/A  VSB 0            
$$

NYZ052-076-190600-
EASTERN NEW YORK
  
CITY           SKY/WX    TMP DP  RH WIND       PRES   REMARKS
ALBANY         MOCLDY    70  54  56 S9        29.76S                  
NEW YORK CITY  MOCLDY    76  55  48 SW10      29.85S                  
$$
 
ANZALL-190600-
MARINE OBSERVATIONS
  
STATION/POSITION TIME  TEMP    WIND        PRES    VSBY  WAVE
                       AIR SEA DIR/SP/G                  HT/PER
                 (UTC) (F)     (DEG/KT/KT) (MB)    (MI)  (FT/S)
BOSTON BUOY      0440   65 62  210/  8/ 10 1010.5F
BUZZARDS BAY     0400          220/ 19/ 21 1012.9F
NANTUCKET SOUND  0440      66                N/A
MASS BAY-STELLWA 0404   64 61  210/ 10/ 12 1010.2F  1 7/8  2/ 4
ISLE OF SHOALS   0400   69     210/ 18/ 18 1008.8F
S OF BLOCK IS    0426      64                N/A           5/ 6
$$

......................KEY.........................
  SKY/WX - SKY CONDITION/PRESENT WEATHER
  TMP    - TEMPERATURE IN FAHRENHEIT
  DWPT   - DEWPOINT IN FAHRENHEIT
  RH     - RELATIVE HUMIDITY IN PERCENT
  WIND   - DIRECTION AND SPEED IN MPH
  PRES   - MEAN SEA LEVEL PRESSURE IN INCHES OF HG
  WCI    - WIND CHILL INDEX
  VSB    - VISIBILITY IN MILES
  HX     - HEAT INDEX
  TC     - TEMPERATURE IN CELSIUS
  VRB    - VARIABLE WIND DIRECTION
  N/A    - NOT AVAILABLE
  
      

Other recent Regional Weather Roundups

Wed Jun 23, 12:04am

Tue Jun 22, 11:04pm

Tue Jun 22, 10:04pm

Tue Jun 22, 9:05pm

Tue Jun 22, 8:04pm

Tue Jun 22, 7:05pm

Tue Jun 22, 6:04pm

Tue Jun 22, 5:04pm

Tue Jun 22, 4:04pm

Tue Jun 22, 3:05pm

Tue Jun 22, 2:05pm

Tue Jun 22, 1:04pm

Tue Jun 22, 12:04pm

Tue Jun 22, 11:04am

Tue Jun 22, 10:04am

Tue Jun 22, 9:04am

Tue Jun 22, 8:05am

Tue Jun 22, 7:04am

Tue Jun 22, 6:04am

Tue Jun 22, 5:04am

Tue Jun 22, 4:04am

Tue Jun 22, 3:04am

Tue Jun 22, 2:04am

Tue Jun 22, 1:04am

Tue Jun 22, 12:04am

Mon Jun 21, 11:04pm

Mon Jun 21, 10:04pm

Mon Jun 21, 9:05pm

Mon Jun 21, 8:04pm

Mon Jun 21, 7:04pm

Mon Jun 21, 6:04pm

Mon Jun 21, 5:04pm

Mon Jun 21, 4:04pm

Mon Jun 21, 3:04pm

Mon Jun 21, 2:04pm

Mon Jun 21, 1:04pm

Mon Jun 21, 12:04pm

Mon Jun 21, 11:04am

Mon Jun 21, 10:04am

Mon Jun 21, 9:04am

Mon Jun 21, 8:04am

Mon Jun 21, 7:04am

Mon Jun 21, 6:04am

Mon Jun 21, 5:04am

Mon Jun 21, 4:04am

Mon Jun 21, 3:04am

Mon Jun 21, 2:04am

Mon Jun 21, 1:04am

Mon Jun 21, 12:04am

Sun Jun 20, 11:04pm

Sun Jun 20, 10:04pm

Sun Jun 20, 9:04pm

Sun Jun 20, 8:04pm

Sun Jun 20, 7:04pm

Sun Jun 20, 6:04pm

Sun Jun 20, 5:04pm

Sun Jun 20, 4:04pm

Sun Jun 20, 3:04pm

Sun Jun 20, 2:04pm

Sun Jun 20, 1:05pm

Sun Jun 20, 12:04pm

Sun Jun 20, 11:04am

Sun Jun 20, 10:04am

Sun Jun 20, 9:04am

Sun Jun 20, 8:04am

Sun Jun 20, 7:04am

Sun Jun 20, 6:04am

Sun Jun 20, 5:04am

Sun Jun 20, 4:04am

Sun Jun 20, 3:04am

Sun Jun 20, 2:04am

Sun Jun 20, 1:04am

Sun Jun 20, 12:05am

Sat Jun 19, 11:04pm

Sat Jun 19, 10:04pm

Sat Jun 19, 9:05pm

Sat Jun 19, 8:04pm

Sat Jun 19, 7:04pm

Sat Jun 19, 6:04pm

Sat Jun 19, 5:04pm

Sat Jun 19, 4:04pm

Sat Jun 19, 3:04pm

Sat Jun 19, 2:04pm

Sat Jun 19, 1:04pm

Sat Jun 19, 12:04pm

Sat Jun 19, 11:04am

Sat Jun 19, 10:04am

Sat Jun 19, 9:04am

Sat Jun 19, 8:04am

Sat Jun 19, 7:04am

Sat Jun 19, 6:04am

Sat Jun 19, 5:04am

Sat Jun 19, 4:04am

Sat Jun 19, 3:04am

Sat Jun 19, 2:04am

Sat Jun 19, 12:04am

Fri Jun 18, 11:05pm

Fri Jun 18, 10:04pm

Fri Jun 18, 9:04pm

Fri Jun 18, 8:04pm

Fri Jun 18, 7:04pm

Fri Jun 18, 6:04pm

Fri Jun 18, 5:04pm

Fri Jun 18, 4:04pm

Fri Jun 18, 3:04pm

Fri Jun 18, 2:04pm

Fri Jun 18, 1:05pm

Fri Jun 18, 12:04pm

Fri Jun 18, 11:04am

Fri Jun 18, 10:05am

Fri Jun 18, 9:04am

Fri Jun 18, 8:04am

Fri Jun 18, 7:04am

Fri Jun 18, 6:04am

Fri Jun 18, 5:04am

Fri Jun 18, 4:04am

Fri Jun 18, 3:04am

Fri Jun 18, 2:04am

Fri Jun 18, 1:04am

Fri Jun 18, 12:04am

Thu Jun 17, 11:04pm

Thu Jun 17, 10:04pm

Thu Jun 17, 9:04pm

Thu Jun 17, 8:04pm

Thu Jun 17, 7:04pm

Thu Jun 17, 6:04pm

Thu Jun 17, 5:04pm

Thu Jun 17, 4:04pm

Thu Jun 17, 3:04pm

Thu Jun 17, 2:04pm

Thu Jun 17, 1:05pm

Thu Jun 17, 12:04pm

Thu Jun 17, 11:04am

Thu Jun 17, 10:05am

Thu Jun 17, 9:04am

Thu Jun 17, 8:04am

Thu Jun 17, 7:04am

Thu Jun 17, 6:04am

Thu Jun 17, 5:04am

Thu Jun 17, 4:04am

Thu Jun 17, 3:04am

Thu Jun 17, 2:04am

Thu Jun 17, 1:04am

Thu Jun 17, 12:04am

Wed Jun 16, 11:04pm

Wed Jun 16, 10:04pm

Wed Jun 16, 9:04pm

Wed Jun 16, 8:04pm

Wed Jun 16, 7:04pm

Wed Jun 16, 6:04pm

Wed Jun 16, 5:04pm

Wed Jun 16, 4:04pm

Wed Jun 16, 3:04pm

Wed Jun 16, 2:04pm

Wed Jun 16, 1:04pm

Wed Jun 16, 12:04pm

Wed Jun 16, 11:04am

Wed Jun 16, 10:04am

Wed Jun 16, 9:04am

Wed Jun 16, 8:04am

Wed Jun 16, 7:04am

Wed Jun 16, 6:04am

Wed Jun 16, 5:04am

Wed Jun 16, 4:04am

Wed Jun 16, 3:04am

Wed Jun 16, 2:04am

Wed Jun 16, 1:04am

Meta data:

ID: 396db209-591a-41ea-9484-7b5601a9f951
Link: https://api.weather.gov/products/396db209-591a-41ea-9484-7b5601a9f951